Theta_e
322 321 320 318 317 319 321 321 320 320 318 318 316 315 316 316 319 317 314 314 314 314 315 319 320 325 324 325 320 320 320 325 325 325 326 326 326 326 326 326 326 326 326 324
322 321 321 320 320 320 321 321 321 319 318 316 316 317 317 318 319 318 315 314 314 313 314 317 320 321 324 323 324 320 321 324 324 325 325 326 327 327 327 327 327 326 325 328
322 322 322 322 320 320 319 320 321 320 319 318 318 318 320 319 320 321 315 314 313 313 314 316 319 319 324 322 320 321 320 319 322 325 326 327 327 327 327 327 328 328 322 326
321 321 322 322 320 319 318 319 321 322 320 319 319 319 319 320 320 321 317 314 313 313 314 316 318 319 322 325 323 320 320 318 315 318 326 326 326 327 327 327 328 329 327 326
323 322 322 323 322 319 318 318 318 321 319 318 320 320 321 320 323 325 318 315 313 313 314 317 318 319 321 326 325 322 320 318 322 322 323 326 326 327 327 328 329 330 328 327
322 321 322 322 319 318 318 320 321 319 318 321 319 320 320 321 322 324 319 316 314 314 313 316 320 321 321 324 325 321 322 325 325 320 323 325 326 326 323 323 324 326 329 330
322 322 321 317 317 318 320 319 321 322 321 323 321 322 322 321 320 324 320 316 315 315 313 316 317 319 321 322 326 324 324 323 324 319 319 320 324 324 321 322 323 325 327 330
323 324 322 321 317 317 317 319 322 324 324 324 329 328 323 328 321 323 321 317 315 313 315 316 317 319 322 322 324 326 324 322 323 320 320 319 319 322 321 320 321 322 322 324
322 323 322 321 319 317 318 321 318 320 324 324 330 332 330 329 325 324 320 316 315 314 316 315 316 319 320 323 322 325 324 321 321 321 320 320 321 320 320 320 319 320 320 321
321 323 321 323 328 326 317 319 323 319 324 326 326 337 334 331 328 324 319 317 315 314 316 314 316 319 320 323 322 324 321 318 317 316 319 319 320 320 321 319 319 320 321 319
321 321 324 329 329 324 328 330 330 327 324 325 325 335 333 332 328 324 320 317 315 315 316 315 317 319 320 321 323 323 321 320 319 318 316 317 317 319 320 320 318 320 323 324
320 320 323 333 332 331 331 334 334 335 333 328 332 332 332 330 326 324 320 318 315 316 315 316 317 319 321 322 322 322 322 321 321 320 319 320 318 316 318 319 319 320 322 323
320 321 333 332 333 330 328 332 335 334 332 333 334 331 330 330 328 324 320 318 316 316 315 316 316 318 321 321 322 321 323 321 322 320 319 319 318 317 317 317 319 319 320 321
323 321 325 328 329 332 332 330 331 332 333 332 331 332 331 332 329 328 322 318 317 316 317 317 317 319 320 321 321 321 320 320 323 320 319 319 317 317 317 317 317 318 319 320
321 323 325 324 327 331 330 330 330 332 330 332 331 334 330 330 331 330 325 320 317 316 317 317 318 317 319 321 320 320 317 320 323 320 320 319 315 316 317 318 317 316 316 318
326 327 332 338 331 332 333 331 330 330 329 329 330 331 328 329 329 328 326 322 319 317 317 318 318 318 319 320 320 319 317 320 322 321 322 319 315 315 316 317 317 315 314 315
326 327 327 337 334 334 336 333 331 330 328 328 329 327 328 329 329 327 325 323 321 318 317 317 318 318 319 320 320 319 317 320 320 322 323 321 317 314 316 316 316 315 314 313
329 324 324 335 334 336 331 329 329 330 330 328 329 327 327 328 327 326 325 324 322 320 317 317 318 318 319 320 320 321 318 319 321 322 323 322 320 315 314 315 315 315 315 314
328 328 330 334 329 330 331 331 331 332 329 330 328 327 327 327 330 329 326 324 323 321 318 317 318 318 319 319 320 321 318 319 321 323 323 323 322 318 314 315 314 314 312 312
328 326 329 325 328 331 327 326 328 328 331 326 326 326 326 325 330 327 327 327 324 321 320 318 318 318 319 319 320 320 319 319 321 323 323 322 323 319 315 314 314 314 313 312
331 329 329 325 323 329 326 327 327 332 328 329 328 326 325 327 324 324 324 325 325 323 321 319 317 318 318 319 319 319 321 320 321 322 322 323 324 322 317 316 315 315 315 314
332 327 328 324 327 331 327 327 328 326 326 328 329 328 328 327 326 325 323 324 325 324 323 319 317 318 318 318 319 320 320 321 322 323 324 324 323 324 321 319 319 317 316 316
332 326 327 325 326 323 326 326 325 324 325 329 327 327 327 327 327 325 323 322 324 325 324 320 318 318 318 318 318 319 319 321 322 323 324 324 324 324 325 323 322 321 318 316
326 323 326 325 324 322 323 323 324 327 328 327 327 327 328 327 324 325 323 320 324 325 323 321 319 318 318 318 318 318 319 320 321 322 322 324 324 325 326 325 323 323 322 320
324 325 324 324 323 323 322 324 326 325 325 327 327 328 328 329 327 325 324 323 323 325 325 322 320 319 318 319 319 318 318 319 320 321 321 320 322 324 325 325 325 324 322 321
320 324 325 324 322 322 325 326 326 328 328 327 326 328 328 327 328 324 324 325 323 325 326 323 321 320 319 321 320 319 318 320 320 320 320 320 319 322 324 325 325 325 323 323
Wind_Speed
3 3 5 8 8 5 6 6 9 4 6 7 10 7 13 11 7 10 8 9 8 8 9 9 9 9 6 4 8 11 10 10 9 8 8 12 11 12 12 12 11 11 15 8
0 7 8 8 7 8 7 9 12 6 8 8 8 12 9 11 12 14 12 9 10 6 6 8 11 8 6 6 5 9 11 10 12 10 6 6 9 10 10 12 14 17 19 19
9 7 8 10 9 9 7 8 11 6 1 6 4 6 5 7 2 9 8 9 8 11 9 7 11 8 6 10 10 7 8 9 10 14 10 9 8 9 12 18 16 18 16 20
8 10 12 10 12 10 9 8 14 6 7 6 4 4 5 6 8 11 11 10 10 9 7 7 11 9 8 10 12 10 10 7 9 8 13 15 15 14 13 20 17 19 14 15
15 8 8 12 17 13 10 7 8 6 7 4 3 3 6 7 5 9 11 12 10 10 10 10 13 14 10 12 12 11 9 9 11 11 11 17 17 17 23 21 20 19 21 14
13 8 9 15 10 14 8 4 5 5 3 0 7 5 4 6 15 7 10 12 13 10 9 10 19 16 14 12 15 14 11 8 11 15 15 12 16 16 17 18 17 18 17 19
7 16 10 6 7 5 5 6 2 3 4 6 1 2 10 11 9 17 19 15 13 12 9 9 9 14 16 13 17 14 11 13 13 14 17 17 16 16 18 19 20 18 20 21
10 12 13 6 9 8 7 9 6 7 3 9 6 4 7 5 13 16 19 17 13 10 9 11 13 17 18 17 16 17 15 14 15 18 18 16 15 16 18 17 19 19 19 19
8 14 8 5 7 14 5 4 9 6 3 1 4 6 6 2 8 11 13 15 15 12 12 12 14 18 17 21 17 19 17 15 17 16 17 17 18 14 14 15 17 19 19 21
9 11 11 11 2 4 11 6 3 2 5 5 4 4 6 3 9 10 13 17 14 10 12 10 13 20 15 23 16 22 20 18 15 15 16 16 16 16 15 15 15 17 20 21
14 7 5 4 6 9 1 3 5 4 5 3 3 6 7 11 13 18 17 17 17 15 14 11 14 24 20 18 14 26 22 21 18 16 15 15 15 17 18 16 16 17 18 19
11 8 12 4 5 4 2 8 7 4 4 2 4 7 6 8 9 16 18 17 16 16 14 11 17 23 21 19 15 27 23 23 22 20 17 15 14 15 17 17 16 17 17 16
11 6 3 5 5 4 3 4 6 9 3 6 0 5 5 6 6 8 12 14 16 15 11 11 12 16 23 23 19 25 25 25 25 25 20 16 14 14 16 16 17 16 15 16
20 8 19 15 11 6 4 10 15 9 5 4 7 9 8 7 7 7 10 13 15 18 17 15 11 15 23 26 22 25 26 25 27 27 23 20 16 16 15 15 17 17 17 17
9 14 7 18 13 15 9 14 16 18 18 9 9 7 10 11 16 15 10 12 13 14 16 17 15 13 22 26 24 29 26 24 30 28 25 21 19 19 17 16 18 18 17 18
4 6 5 3 11 10 5 9 14 20 18 14 10 10 9 13 2 5 12 17 19 19 19 19 17 19 23 26 28 31 29 29 30 29 25 23 22 21 18 20 19 18 18 17
7 7 2 6 14 10 2 9 13 18 11 16 12 12 7 9 7 13 13 21 24 21 20 20 21 23 27 29 31 33 33 33 31 29 27 25 24 22 19 21 21 21 20 19
5 7 5 5 7 7 5 7 14 14 5 7 4 9 8 18 15 13 13 21 22 22 22 20 22 29 32 34 35 36 36 36 34 31 30 28 26 23 23 21 22 21 20 19
1 6 4 7 3 1 3 6 9 9 12 16 12 11 5 8 6 7 15 17 22 23 21 28 36 36 34 35 39 38 34 36 35 34 33 31 30 26 27 24 23 22 21 20
6 7 5 4 7 9 6 5 7 7 9 6 9 8 4 6 12 10 15 17 16 21 30 29 33 35 35 37 40 34 34 34 32 33 36 34 32 30 29 28 27 24 23 21
3 3 5 3 3 4 4 8 7 10 6 8 9 6 5 5 9 7 10 9 16 25 30 31 33 38 43 40 40 34 34 36 39 40 39 37 36 33 31 29 28 26 23 21
6 6 4 4 3 5 8 4 10 9 4 7 4 7 7 5 5 6 8 9 16 16 22 28 32 35 38 41 40 36 36 41 39 40 39 40 39 37 35 34 31 28 26 25
5 7 7 7 6 8 17 8 10 8 7 7 6 6 8 7 5 6 10 11 13 20 26 33 35 34 34 41 45 40 40 39 40 39 39 39 43 41 39 38 36 34 32 31
4 5 5 5 7 10 16 5 6 6 7 6 3 2 2 2 7 7 10 7 11 18 22 31 31 29 30 39 45 52 40 41 41 39 37 42 42 39 38 41 41 40 39 36
6 8 7 6 3 5 3 3 5 8 6 4 7 7 7 5 6 5 4 7 6 13 24 31 32 31 36 42 46 44 40 42 41 40 37 35 39 42 38 42 44 42 45 45
1 9 7 6 5 4 3 1 4 10 10 10 7 5 6 5 8 4 4 6 5 10 22 24 31 36 38 39 43 41 41 43 42 37 36 35 31 36 36 37 36 48 50 50
Wind_Direction
235 155 215 233 226 213 229 247 263 269 229 148 213 216 197 201 189 160 161 154 159 162 174 151 124 123 105 83 60 51 63 74 54 47 55 65 63 62 68 70 75 85 87 131
279 226 218 229 241 240 246 258 271 307 227 158 208 241 195 193 204 173 163 166 162 158 178 151 141 123 124 90 92 61 72 78 62 53 44 72 70 64 72 74 89 97 119 130
196 217 209 231 252 253 256 243 261 224 99 317 135 293 182 214 105 150 170 160 155 166 177 145 151 140 134 103 89 80 104 80 73 64 79 97 96 82 73 77 69 99 100 123
214 226 230 247 238 224 247 235 251 215 146 209 154 255 290 199 171 164 170 170 171 170 170 146 158 158 152 141 103 90 93 91 73 73 71 88 91 82 67 80 79 94 127 153
228 220 227 233 231 219 231 222 232 184 169 155 231 94 265 130 184 175 185 182 177 179 169 156 166 165 172 154 130 98 109 97 64 68 110 88 95 90 85 85 86 104 127 159
217 220 222 236 233 215 209 190 37 57 91 9 239 169 263 188 201 173 191 179 176 177 176 158 169 169 180 159 153 123 102 77 73 77 96 114 102 97 84 87 88 93 92 113
232 246 256 202 220 171 100 77 291 331 353 228 241 120 247 213 192 180 180 179 176 175 164 154 168 178 186 179 172 163 133 108 100 92 92 100 104 101 88 82 84 87 89 96
210 246 253 213 197 183 178 153 161 208 205 264 26 269 267 286 198 178 178 169 164 168 162 161 177 181 191 189 183 176 155 132 124 114 106 106 100 100 101 93 90 87 87 99
195 234 259 224 221 163 207 161 190 160 198 105 246 291 341 228 109 136 153 159 173 171 168 171 178 187 184 193 190 175 161 145 138 136 127 119 114 109 106 112 103 86 93 97
218 227 231 254 208 328 178 175 109 18 194 247 273 242 228 235 160 149 163 177 174 170 170 173 174 189 185 190 187 172 163 149 144 139 137 129 120 118 115 116 119 97 94 105
199 163 261 138 171 191 98 84 71 113 141 190 247 257 214 197 173 172 181 184 174 175 176 174 175 188 183 182 171 174 169 155 153 143 139 137 134 133 128 119 122 121 106 105
201 181 228 213 286 249 130 156 122 114 301 305 212 266 250 220 163 172 180 181 181 176 173 173 173 183 181 183 162 174 175 167 166 158 151 146 142 145 139 134 130 131 126 118
185 204 132 354 342 356 169 133 88 100 106 237 243 264 303 92 164 177 177 175 179 171 164 171 168 174 180 185 176 183 180 174 167 162 157 156 153 152 148 142 143 142 139 136
184 172 204 210 200 147 188 166 172 169 183 227 241 275 271 154 177 154 177 176 188 172 172 174 176 179 182 189 188 186 179 176 168 163 159 159 161 159 152 150 152 153 149 146
212 202 192 214 178 183 190 190 194 205 219 204 238 238 250 201 198 186 166 169 177 184 175 181 178 182 185 192 194 189 184 175 171 165 162 163 163 162 155 151 152 154 156 154
206 210 115 62 151 151 150 212 214 215 221 229 235 248 234 237 212 175 178 174 184 188 187 183 181 184 185 192 195 190 185 177 173 170 168 167 165 167 162 160 158 161 157 157
164 154 102 152 140 115 230 196 213 228 223 214 225 232 233 232 218 239 182 180 189 190 190 186 185 187 187 191 196 190 187 181 178 175 172 172 171 171 165 165 162 158 158 160
208 122 119 151 131 210 186 164 200 223 219 208 254 253 198 223 210 234 207 185 193 187 193 189 186 188 190 191 195 195 190 185 183 179 178 177 176 175 174 168 170 169 171 173
24 123 104 146 208 55 172 164 155 166 244 203 210 247 192 236 144 254 206 196 188 189 193 193 190 186 188 189 194 194 185 185 183 181 182 184 181 177 177 178 175 177 178 181
50 66 108 142 162 208 187 165 125 104 254 197 189 231 232 98 194 220 192 200 199 195 193 189 187 186 187 191 192 187 184 184 185 185 187 188 188 183 182 185 185 186 188 186
69 52 126 103 105 279 260 141 127 176 228 197 169 179 150 171 220 271 216 215 207 191 193 190 178 185 193 188 189 188 186 189 190 191 191 191 193 192 191 189 191 193 193 193
143 135 147 97 106 226 162 117 170 207 179 171 170 152 148 212 253 294 264 244 205 190 192 186 184 192 190 189 190 193 194 191 190 192 192 193 198 199 197 194 195 198 197 201
166 174 159 168 200 217 189 190 217 179 167 186 186 199 161 165 250 210 236 229 217 202 196 189 190 191 191 189 192 196 201 189 187 191 193 195 201 202 204 202 200 200 203 207
234 131 138 122 211 211 198 201 188 166 198 171 181 136 76 275 242 244 256 266 194 183 193 190 188 188 189 194 196 205 196 192 190 191 189 194 200 202 205 208 209 206 207 210
174 152 158 206 232 102 93 149 175 218 224 305 123 183 190 193 236 249 251 259 200 176 194 184 184 189 196 195 200 203 196 191 193 197 199 195 196 202 202 208 211 215 220 220
146 171 180 201 178 131 151 182 171 193 208 211 172 174 216 193 204 132 316 300 264 189 183 189 195 193 199 199 202 199 196 192 192 195 199 204 202 202 202 207 213 226 230 232